Port Kembla Harbour Observation History
Time Wind Speed Temp Pressure Rel. Hum Rain
30/11:00am NNW 8-13 kts 22.2°c 1012.8 hPa n/a n/a
30/10:30am N 2-5 kts 22.8°c 1012.9 hPa n/a n/a
30/10:00am W 4-7 kts 23.4°c 1012.7 hPa n/a n/a
30/09:30am NW 7-13 kts 23.0°c 1012.7 hPa n/a n/a
30/09:00am NW 11-17 kts 22.6°c 1012.6 hPa n/a n/a
30/08:30am WNW 11-16 kts 23.1°c 1012.5 hPa n/a n/a
30/08:00am NW 6-10 kts 22.4°c 1012.1 hPa n/a n/a
30/07:30am NW 11-17 kts 22.9°c 1011.9 hPa n/a n/a
30/07:00am NW 10-15 kts 23.2°c 1011.5 hPa n/a n/a
30/06:30am NW 5-12 kts 22.5°c 1011.5 hPa n/a n/a
30/06:00am NW 11-19 kts 21.9°c 1011.7 hPa n/a n/a
30/05:43am NW 12-21 kts 22.2°c 1011.9 hPa n/a n/a
30/05:30am N 8-11 kts 21.8°c 1011.9 hPa n/a n/a
30/05:00am N 7-10 kts 22.0°c 1011.9 hPa n/a n/a
30/04:30am NE 6-8 kts 21.8°c 1011.9 hPa n/a n/a
30/04:00am ENE 4-6 kts 21.6°c 1012.4 hPa n/a n/a
30/03:30am NNE 5-7 kts 21.8°c 1013.0 hPa n/a n/a
30/03:00am N 3-5 kts 21.7°c 1013.5 hPa n/a n/a
30/02:30am WNW 5-9 kts 21.9°c 1014.3 hPa n/a n/a
30/02:00am W 9-12 kts 21.7°c 1014.5 hPa n/a n/a
30/01:30am N 2-3 kts 21.4°c 1014.1 hPa n/a n/a
30/01:00am NNW 4-6 kts 21.5°c 1014.2 hPa n/a n/a
30/12:30am NE 3-4 kts 21.4°c 1014.4 hPa n/a n/a
30/12:00am N 3-4 kts 21.4°c 1014.9 hPa n/a n/a
Time Wind Speed Temp Pressure Rel. Hum Rain
29/11:30pm NNE 7-10 kts 21.7°c 1015.4 hPa n/a n/a
29/11:00pm NNE 7-9 kts 21.7°c 1015.6 hPa n/a n/a
29/10:30pm NNE 7-10 kts 21.7°c 1015.8 hPa n/a n/a
29/10:00pm NNE 10-13 kts 21.9°c 1016.1 hPa n/a n/a
29/09:30pm N 9-12 kts 21.8°c 1016.3 hPa n/a n/a
29/09:00pm NNE 8-12 kts 21.8°c 1016.2 hPa n/a n/a
29/08:30pm NNE 10-15 kts 21.9°c 1015.9 hPa n/a n/a
29/08:00pm NNE 10-15 kts 21.9°c 1015.8 hPa n/a n/a
29/07:30pm NNE 13-17 kts 21.9°c 1015.6 hPa n/a n/a
29/07:00pm NNE 14-19 kts 21.9°c 1015.5 hPa n/a n/a
29/06:30pm NNE 14-18 kts 21.9°c 1015.4 hPa n/a n/a
29/06:00pm NE 15-20 kts 21.8°c 1015.2 hPa n/a n/a
29/05:30pm NE 15-18 kts 21.9°c 1015.3 hPa n/a n/a
29/05:00pm NE 14-19 kts 22.0°c 1015.3 hPa n/a n/a
29/04:30pm NE 15-20 kts 22.0°c 1015.7 hPa n/a n/a
29/04:00pm NE 14-19 kts 21.9°c 1016.0 hPa n/a n/a
29/03:30pm NE 15-20 kts 21.8°c 1016.3 hPa n/a n/a
29/03:00pm NE 15-19 kts 21.9°c 1016.6 hPa n/a n/a
29/02:30pm NE 14-20 kts 21.9°c 1017.0 hPa n/a n/a
29/02:00pm NE 14-18 kts 21.9°c 1017.4 hPa n/a n/a
29/01:30pm NE 9-12 kts 21.9°c 1018.1 hPa n/a n/a
29/01:00pm NE 10-12 kts 21.8°c 1018.7 hPa n/a n/a
29/12:30pm NNE 10-14 kts 21.7°c 1019.2 hPa n/a n/a
29/12:00pm NE 9-13 kts 21.3°c 1019.6 hPa n/a n/a
29/11:30am NE 9-12 kts 21.0°c 1020.0 hPa n/a n/a
29/11:00am NE 9-13 kts 21.1°c 1020.3 hPa n/a n/a
29/10:30am NE 8-11 kts 20.9°c 1020.5 hPa n/a n/a
29/10:00am NE 7-9 kts 21.1°c 1020.5 hPa n/a n/a
29/09:30am NNE 5-7 kts 20.7°c 1020.4 hPa n/a n/a
29/09:00am NNE 7-9 kts 20.6°c 1020.1 hPa n/a n/a
29/08:30am NE 8-11 kts 20.4°c 1020.2 hPa n/a n/a
29/08:00am NE 8-13 kts 20.1°c 1020.0 hPa n/a n/a
29/07:30am N 3-5 kts 19.9°c 1019.8 hPa n/a n/a
29/07:00am NNE 4-7 kts 19.6°c 1019.5 hPa n/a n/a
29/06:30am NNW 3-4 kts 18.9°c 1019.4 hPa n/a n/a
29/06:00am N 6-11 kts 19.0°c 1019.5 hPa n/a n/a
29/05:30am W 5-6 kts 18.6°c 1019.4 hPa n/a n/a
29/05:00am SW 1-2 kts 18.6°c 1019.4 hPa n/a n/a
29/04:30am S 1-2 kts 18.4°c 1019.4 hPa n/a n/a
29/04:00am WSW 1-2 kts 18.6°c 1019.7 hPa n/a n/a
29/03:30am SW 2-3 kts 18.2°c 1019.7 hPa n/a n/a
29/03:00am SSW 2-3 kts 18.6°c 1020.1 hPa n/a n/a
29/02:30am ESE 1-2 kts 19.0°c 1020.5 hPa n/a n/a
29/02:00am SE 1-2 kts 18.6°c 1020.9 hPa n/a n/a
29/01:30am SW 3 kts 17.9°c 1021.1 hPa n/a n/a
29/01:00am SW 3-4 kts 18.0°c 1021.4 hPa n/a n/a
29/12:30am WSW 5-6 kts 17.9°c 1021.7 hPa n/a n/a
29/12:00am WSW 4-5 kts 18.0°c 1022.0 hPa n/a n/a
Time Wind Speed Temp Pressure Rel. Hum Rain
28/11:30pm WSW 3-4 kts 18.0°c 1022.3 hPa n/a n/a
28/11:00pm WSW 5-7 kts 17.8°c 1022.4 hPa n/a n/a
28/10:30pm WSW 5-6 kts 17.8°c 1022.6 hPa n/a n/a
28/10:00pm WSW 4-6 kts 17.9°c 1022.7 hPa n/a n/a
28/09:30pm W 5-6 kts 17.7°c 1022.9 hPa n/a n/a
28/09:00pm WNW 3-5 kts 18.0°c 1022.9 hPa n/a n/a
28/08:30pm N 2-3 kts 18.0°c 1022.8 hPa n/a n/a
28/08:00pm NNE 6-8 kts 18.4°c 1022.8 hPa n/a n/a
28/07:30pm NE 14-20 kts 18.9°c 1022.6 hPa n/a n/a
28/07:00pm NE 13-18 kts 20.9°c 1022.3 hPa n/a n/a
28/06:30pm NE 12-17 kts 21.1°c 1022.2 hPa n/a n/a
28/06:00pm NE 9-13 kts 21.9°c 1021.9 hPa n/a n/a
28/05:30pm NE 9-13 kts 22.0°c 1021.9 hPa n/a n/a
28/05:00pm NE 8-12 kts 22.0°c 1021.9 hPa n/a n/a
28/04:30pm NE 6-9 kts 21.9°c 1022.0 hPa n/a n/a
28/04:00pm NE 4-6 kts 21.6°c 1022.1 hPa n/a n/a
28/03:30pm NE 4-6 kts 21.6°c 1022.3 hPa n/a n/a
28/03:00pm ENE 4-6 kts 21.5°c 1022.7 hPa n/a n/a
28/02:30pm ENE 4-5 kts 21.3°c 1023.0 hPa n/a n/a
28/02:00pm E 4-6 kts 21.2°c 1023.3 hPa n/a n/a
28/01:30pm ESE 4-6 kts 20.9°c 1023.7 hPa n/a n/a
28/01:00pm ESE 5-6 kts 20.4°c 1024.2 hPa n/a n/a
28/12:30pm SE 5-7 kts 20.5°c 1024.5 hPa n/a n/a
28/12:00pm SE 5-7 kts 20.5°c 1024.8 hPa n/a n/a
28/11:30am SE 5-7 kts 20.2°c 1025.0 hPa n/a n/a
28/11:00am SE 4-7 kts 20.4°c 1025.1 hPa n/a n/a
28/10:30am SSE 3-7 kts 20.7°c 1025.1 hPa n/a n/a
28/10:00am SW 4-7 kts 19.9°c 1025.3 hPa n/a n/a
28/09:30am WSW 6-7 kts 19.3°c 1025.3 hPa n/a n/a
28/09:00am SW 6-7 kts 19.0°c 1025.1 hPa n/a n/a
28/08:30am W 6-7 kts 18.3°c 1025.0 hPa n/a n/a
28/08:00am WSW 6-7 kts 18.0°c 1024.8 hPa n/a n/a
28/07:30am W 7-9 kts 17.8°c 1024.5 hPa n/a n/a
28/07:00am WSW 6-8 kts 17.3°c 1024.4 hPa n/a n/a
28/06:30am WSW 7-9 kts 17.1°c 1024.2 hPa n/a n/a
28/06:00am W 6-7 kts 16.6°c 1024.2 hPa n/a n/a
28/05:30am WSW 4-6 kts 16.6°c 1024.0 hPa n/a n/a
28/05:00am SW 4-6 kts 16.9°c 1023.9 hPa n/a n/a
28/04:30am SW 5-8 kts 16.7°c 1023.9 hPa n/a n/a
28/04:00am WSW 4-6 kts 17.1°c 1023.9 hPa n/a n/a
28/03:30am SW 4-5 kts 16.7°c 1024.2 hPa n/a n/a
28/03:00am WSW 3-6 kts 16.8°c 1024.4 hPa n/a n/a
28/02:30am WSW 4-5 kts 16.6°c 1024.6 hPa n/a n/a
28/02:00am WSW 4-6 kts 16.1°c 1024.9 hPa n/a n/a
28/01:30am W 4-5 kts 16.1°c 1025.0 hPa n/a n/a
28/01:00am WSW 4-5 kts 16.6°c 1025.3 hPa n/a n/a
28/12:30am WSW 4-5 kts 16.8°c 1025.5 hPa n/a n/a
28/12:00am WSW 4-5 kts 16.5°c 1025.8 hPa n/a n/a